Location: Dodge City Co - Operative Exchange Grain Elevator Number 8
(38.1218°N, 99.7124°W)
Time: 02:27:35
(UTC+00:00)

CZ-4B R/B - Pass Details

Date: 03 March 2021
Orbit: 487 x 650 km, 97.9° (Epoch: 14 April)

Event Time Altitude Azimuth Distance (km) Brightness Sun altitude
Rises 12:22:30 0° 6° (N) 2,948 6.6 -9.6°
Reaches altitude 10° 12:24:44 10° 2° (N) 2,047 5.7 -9.2°
Maximum altitude 12:29:05 52° 286° (WNW) 812 3.3 -8.3°
Drops below altitude 10° 12:33:27 10° 211° (SSW) 2,047 5.5 -7.5°
Sets 12:35:41 0° 206° (SSW) 2,947 6.3 -7.0°
